Stations météo

réclame
Mon MeteoGroup
Lahr, Allemagne (10805): Température de l'air & dewpoint: 04.12.2018 23:00:00 - 10.12.2018 23:00:00 (CET)Lahr, Allemagne (10805): Température de l'air 5cm & Température de l'air -5cm: 04.12.2018 23:00:00 - 10.12.2018 23:00:00 (CET)Lahr, Allemagne (10805): Température de l'air -20cm & Température de l'air -100cm: 04.12.2018 23:00:00 - 10.12.2018 23:00:00 (CET)Lahr, Allemagne (10805): Vitesse du vent & gusts: 04.12.2018 23:00:00 - 10.12.2018 23:00:00 (CET)Lahr, Allemagne (10805): Direction du vent: 04.12.2018 23:00:00 - 10.12.2018 23:00:00 (CET)Lahr, Allemagne (10805): reduced air pressure: 04.12.2018 23:00:00 - 10.12.2018 23:00:00 (CET)Lahr, Allemagne (10805): visibility: 04.12.2018 23:00:00 - 10.12.2018 23:00:00 (CET)Lahr, Allemagne (10805): Ensoleillement: 04.12.2018 23:00:00 - 10.12.2018 23:00:00 (CET)Lahr, Allemagne (10805): Quantités de précipitations: 04.12.2018 23:00:00 - 10.12.2018 23:00:00 (CET)
Date & Time tt [°C] td [°C] tt 5cm [°C] tt -5cm [°C] tt -20cm [°C] tt -100cm [°C] ff [km/h] ff [knt] fx [km/h] fx [knt] dd ppp [hPa] vv [km] sd [min] rr [mm]
10.12.2018 23:00:00 4,9 1,7 3,9 3,6 6,5 10,2 8 4 12 7 NW 1025,9 58 0 0,0
10.12.2018 22:00:00 4,5 1,7 1,6 4,0 6,6 10,2 6 4 19 10 W 1025,5 57 0 0,0
10.12.2018 21:00:00 5,5 2,6 4,4 4,5 6,7 10,2 9 5 14 7 W 1025,6 36 0 0,0
10.12.2018 20:00:00 4,7 2,7 3,6 4,3 6,8 10,2 3 2 11 6 S 1025,5 20 0 0,0
10.12.2018 19:00:00 4,3 2,8 2,8 4,2 6,9 10,2 7 4 14 8 S 1025,5 34 0 0,0
10.12.2018 18:00:00 4,5 3,2 2,9 4,6 7,0 10,2 8 5 17 9 SSW 1025,2 33 0 0,0
10.12.2018 17:00:00 4,3 3,4 3,1 5,6 7,0 10,2 11 6 18 10 SW 1024,8 49 0 0,0
10.12.2018 16:00:00 5,9 4,3 4,9 6,4 7,0 10,2 5 3 10 5 S 1024,8 49 31 0,0
10.12.2018 15:00:00 5,3 4,1 4,7 6,1 7,0 10,2 8 4 24 13 NNW 1025,0 10 0 2,0
10.12.2018 14:00:00 5,4 4,2 4,9 6,4 6,9 10,2 14 7 23 12 N 1025,2 3,3 0 0,5
10.12.2018 13:00:00 7,3 2,8 7,1 6,3 6,8 10,2 9 5 15 8 SSW 1025,0 55 0 0,0
10.12.2018 12:00:00 7,2 3,1 7,0 6,0 6,8 10,2 9 5 17 9 WSW 1025,6 67 0 0,0
10.12.2018 11:00:00 6,9 3,4 6,6 5,6 6,8 10,2 6 3 11 6 WSW 1025,7 53 1 0,0
10.12.2018 10:00:00 6,0 3,4 4,9 5,0 6,8 10,2 11 6 20 11 SSW 1025,1 10 13 0,0
10.12.2018 09:00:00 5,3 3,8 4,6 4,5 6,9 10,2 15 8 23 13 SSW 1024,6 10 0 0,0
10.12.2018 08:00:00 5,4 2,8 4,3 4,4 7,0 10,2 14 8 22 12 W 1024,3 37 0 0,0
10.12.2018 07:00:00 4,6 3,3 3,7 5,0 7,1 10,2 7 4 13 7 SW 1023,9 65 0 0,0
10.12.2018 06:00:00 5,3 3,3 4,0 5,3 7,2 10,2 6 4 20 11 ENE 1023,3 61 0 0,1
10.12.2018 05:00:00 6,0 2,9 4,9 5,2 7,2 10,2 7 4 11 6 S 1022,7 49 0 0,0
10.12.2018 04:00:00 6,6 1,5 5,4 5,1 7,3 10,2 7 4 23 12 SSW 1022,3 70 0 0,0
10.12.2018 03:00:00 7,0 1,4 5,5 5,1 7,4 10,2 13 7 27 15 W 1022,2 70 0 0,0
10.12.2018 02:00:00 7,2 1,2 5,7 5,3 7,6 10,2 17 9 29 16 W 1021,0 70 0 0,0
10.12.2018 01:00:00 7,1 2,0 5,5 5,7 7,7 10,2 19 10 36 19 WNW 1020,3 70 0 0,0
10.12.2018 00:00:00 7,7 3,0 6,0 6,1 7,7 10,2 19 10 29 15 WNW 1019,1 70 0 0,0
09.12.2018 23:00:00 6,8 4,6 5,2 6,1 7,8 10,2 10 5 13 7 W 1018,0 70 0 0,1
09.12.2018 22:00:00 6,6 4,7 4,8 6,3 7,9 10,2 4 2 22 12 WNW 1017,0 70 0 0,1
09.12.2018 21:00:00 8,1 4,5 6,2 7,0 7,9 10,2 19 10 37 20 NW 1016,0 21 0 0,2
09.12.2018 20:00:00 8,2 5,5 7,5 7,1 7,9 10,2 10 6 21 11 WSW 1014,4 70 0 0,0
09.12.2018 19:00:00 8,1 5,8 7,4 7,1 7,9 10,2 13 7 27 15 SW 1013,0 70 0 0,0
09.12.2018 18:00:00 8,2 5,9 6,8 7,1 7,9 10,2 17 9 34 18 WSW 1011,9 70 0 0,4
09.12.2018 17:00:00 8,2 6,0 6,8 7,2 7,9 10,2 22 12 48 26 SW 1010,4 11 0 0,1
09.12.2018 16:00:00 8,8 5,2 7,9 7,3 7,9 10,2 25 14 54 29 SW 1009,4 50 0 0,1
09.12.2018 15:00:00 8,6 5,2 7,2 7,3 7,9 10,2 32 17 57 31 WSW 1008,5 18 0 0,0
09.12.2018 14:00:00 9,2 4,9 8,3 7,5 7,8 10,2 33 18 51 28 WSW 1008,2 67 0 0,1
09.12.2018 13:00:00 8,9 4,9 8,7 7,5 7,8 10,2 27 14 53 28 SW 1008,9 70 0 0,0
09.12.2018 12:00:00 9,1 4,4 8,6 7,2 7,8 10,2 29 16 51 27 WSW 1009,3 10 0 0,0
09.12.2018 11:00:00 9,5 3,9 8,7 6,9 7,8 10,3 28 15 48 26 SW 1009,0 10 0 0,0
09.12.2018 10:00:00 9,0 4,2 8,3 6,6 7,9 10,3 23 12 46 25 SW 1009,4 43 0 0,0
09.12.2018 09:00:00 8,5 4,5 7,7 6,3 7,9 10,3 18 10 29 16 SW 1008,6 48 0 0,0
09.12.2018 08:00:00 8,3 3,9 6,8 6,4 8,0 10,3 23 12 52 28 W 1007,8 70 0 0,0
09.12.2018 07:00:00 9,0 4,4 7,2 6,5 8,1 10,3 37 20 58 32 W 1006,8 48 0 0,0
09.12.2018 06:00:00 7,0 4,4 5,5 6,9 8,2 10,2 23 12 42 23 SW 1006,4 70 0 0,8
09.12.2018 05:00:00 7,5 5,8 6,4 7,5 8,2 10,2 28 15 72 39 W 1006,8 16 0 2,5
09.12.2018 04:00:00 10,6 6,2 9,0 7,8 8,2 10,2 29 16 45 25 WSW 1005,1 50 0 0,1
09.12.2018 03:00:00 8,0 7,5 7,6 7,8 8,1 10,2 8 4 14 8 N 1005,8 70 0 2,9
09.12.2018 02:00:00 8,7 8,1 7,9 7,8 8,1 10,2 9 5 40 22 WSW 1006,6 12 0 2,1
09.12.2018 01:00:00 9,6 7,4 8,2 7,7 8,1 10,2 28 15 54 29 SSW 1007,3 32 0 0,1
09.12.2018 00:00:00 9,6 6,8 8,9 7,5 8,1 10,2 36 20 56 31 SSW 1006,9 70 0 0,0
08.12.2018 23:00:00 9,2 6,7 8,6 7,4 8,0 10,2 32 17 55 30 SSW 1008,2 70 0 0,0
08.12.2018 22:00:00 8,9 6,0 8,3 7,3 8,0 10,2 32 18 51 28 SSW 1009,7 70 0 0,1
08.12.2018 21:00:00 8,5 6,2 7,4 7,2 8,0 10,2 34 19 59 32 SSW 1011,1 28 0 0,0
08.12.2018 20:00:00 8,6 5,7 8,0 7,1 8,1 10,2 28 15 50 27 S 1012,3 10 0 0,1
08.12.2018 19:00:00 8,5 5,3 7,3 7,1 8,1 10,2 28 15 49 26 SSW 1013,6 17 0 0,0
08.12.2018 18:00:00 8,4 5,5 7,7 7,1 8,1 10,2 29 16 45 24 SSW 1014,4 63 0 0,0
08.12.2018 17:00:00 8,3 5,3 7,0 7,2 8,1 10,2 26 14 47 25 SSW 1015,1 30 0 0,0
08.12.2018 16:00:00 8,4 5,5 7,4 7,3 8,1 10,2 28 15 46 25 SSW 1015,1 23 0 0,1
08.12.2018 15:00:00 8,6 5,1 7,9 7,3 8,0 10,2 29 16 44 24 SSW 1015,1 10 0 0,0
08.12.2018 14:00:00 8,3 5,2 7,2 7,5 8,0 10,2 31 17 49 26 SSW 1015,6 10 0 0,0
08.12.2018 13:00:00 8,5 5,0 8,1 7,4 7,9 10,2 29 16 54 29 SW 1015,4 32 1 0,0
08.12.2018 12:00:00 8,1 4,3 7,4 7,0 7,9 10,2 35 19 49 27 SSW 1015,6 10 0 0,1
08.12.2018 11:00:00 7,5 4,1 6,7 6,5 7,9 10,2 31 17 50 27 SSW 1015,9 43 0 0,0
08.12.2018 10:00:00 7,2 3,8 7,0 6,3 8,0 10,2 27 14 45 24 SSW 1016,1 65 0 0,0
08.12.2018 09:00:00 6,6 3,6 6,1 5,9 8,1 10,2 32 17 44 24 SSW 1016,6 44 0 0,0
08.12.2018 08:00:00 6,7 3,2 6,1 5,8 8,2 10,2 24 13 40 22 SSW 1016,7 62 0 0,0
08.12.2018 07:00:00 6,6 3,2 5,9 5,8 8,4 10,2 22 12 37 20 SSW 1017,1 55 0 0,0
08.12.2018 06:00:00 6,1 3,1 5,0 6,0 8,5 10,2 19 11 39 21 S 1016,7 70 0 0,2
08.12.2018 05:00:00 6,8 3,1 5,4 6,3 8,6 10,2 22 12 39 21 SW 1017,0 9 0 0,0
08.12.2018 04:00:00 7,9 1,5 7,1 6,4 8,8 10,1 22 12 46 25 SSW 1016,3 70 0 0,0
08.12.2018 03:00:00 7,6 2,2 6,6 6,6 8,9 10,1 21 11 39 21 SW 1016,4 70 0 0,0
08.12.2018 02:00:00 7,8 2,8 6,8 6,9 9,1 10,1 17 9 37 20 SSW 1016,2 70 0 0,0
08.12.2018 01:00:00 7,4 3,5 6,5 7,0 9,3 10,1 16 9 36 19 SSW 1015,5 70 0 0,0
08.12.2018 00:00:00 7,2 3,7 5,6 7,4 9,4 10,1 24 13 45 25 WSW 1015,0 70 0 0,0
07.12.2018 23:00:00 8,2 5,2 6,6 8,0 9,6 10,1 16 9 29 16 WSW 1013,7 61 0 0,2
07.12.2018 22:00:00 8,6 4,9 6,9 8,5 9,7 10,1 18 10 46 25 SW 1012,5 70 0 0,0
07.12.2018 21:00:00 10,0 6,6 8,3 9,3 9,7 10,1 27 14 57 31 WSW 1010,3 70 0 1,7
07.12.2018 20:00:00 11,5 7,5 10,8 9,3 9,8 10,1 35 19 56 31 SSW 1007,7 70 0 0,1
07.12.2018 19:00:00 11,9 6,9 11,1 9,4 9,8 10,1 34 18 50 27 S 1008,0 10 0 0,0
07.12.2018 18:00:00 12,1 6,6 11,3 9,5 9,9 10,1 28 15 47 26 S 1008,8 10 0 0,0
07.12.2018 17:00:00 11,9 7,1 11,2 9,8 9,9 10,1 24 13 49 26 SSW 1010,4 10 0 0,0
07.12.2018 16:00:00 12,1 7,1 11,4 10,3 9,9 10,1 31 17 48 26 SSW 1010,8 70 0 0,0
07.12.2018 15:00:00 12,5 7,5 11,9 11,1 9,8 10,1 27 15 46 25 SSW 1011,7 70 24 0,0
07.12.2018 14:00:00 13,1 8,1 13,9 11,2 9,7 10,1 26 14 40 22 SSW 1013,0 56 15 0,0
07.12.2018 13:00:00 11,7 8,6 10,9 10,6 9,7 10,1 24 13 49 27 SSW 1014,8 10 1 0,1
07.12.2018 12:00:00 12,2 7,9 12,3 10,6 9,6 10,1 28 15 41 22 SSW 1015,9 10 2 0,0
07.12.2018 11:00:00 11,8 8,3 11,1 9,9 9,6 10,1 27 15 42 23 SSW 1016,9 70 0 0,0
07.12.2018 10:00:00 11,7 8,5 11,2 9,9 9,6 10,1 30 16 41 22 SSW 1017,1 70 0 0,0
07.12.2018 09:00:00 11,7 8,7 11,2 9,8 9,6 10,1 27 15 41 22 SSW 1018,1 70 0 0,0
07.12.2018 08:00:00 11,7 9,0 11,1 9,9 9,6 10,1 22 12 34 18 S 1018,4 10 0 0,0
07.12.2018 07:00:00 11,7 9,6 11,0 10,1 9,6 10,1 15 8 23 13 SSW 1019,2 70 0 0,0
07.12.2018 06:00:00 11,9 9,9 11,4 10,2 9,6 10,1 17 9 28 15 WSW 1019,9 70 0 0,0
07.12.2018 05:00:00 12,0 10,0 11,4 10,2 9,6 10,1 12 6 19 10 SW 1019,9 70 0 0,0
07.12.2018 04:00:00 12,2 10,2 11,5 10,2 9,6 10,1 10 6 20 11 SSW 1020,4 70 0 0,0
07.12.2018 03:00:00 12,1 10,4 11,4 10,2 9,5 10,1 10 6 20 11 SSW 1021,1 70 0 0,0
07.12.2018 02:00:00 12,2 10,2 11,6 10,1 9,5 10,1 11 6 22 12 SW 1021,4 70 0 0,0
07.12.2018 01:00:00 12,2 10,1 11,6 10,1 9,5 10,1 12 7 19 10 SSW 1021,8 60 0 0,0
07.12.2018 00:00:00 12,1 10,1 11,5 10,1 9,5 10,1 10 5 15 8 SSW 1022,1 59 0 0,0
06.12.2018 23:00:00 12,0 10,1 11,4 10,1 9,5 10,1 12 7 22 12 SSW 1022,3 63 0 0,0
06.12.2018 22:00:00 12,2 10,1 11,5 10,1 9,5 10,1 13 7 23 13 SSW 1022,3 70 0 0,0
06.12.2018 21:00:00 12,1 10,0 11,4 10,1 9,5 10,1 13 7 21 11 SSW 1022,4 67 0 0,0
06.12.2018 20:00:00 12,0 10,1 11,4 10,1 9,4 10,1 12 7 20 11 SSW 1022,7 57 0 0,0
06.12.2018 19:00:00 12,0 10,2 11,2 10,1 9,4 10,0 13 7 19 10 S 1022,8 10 0 0,0
06.12.2018 18:00:00 12,3 9,7 11,5 10,2 9,4 10,0 9 5 20 11 SSW 1022,1 10 0 0,0
06.12.2018 17:00:00 12,4 9,7 11,1 10,7 9,3 10,0 16 8 21 11 S 1021,9 70 0 0,0
06.12.2018 16:00:00 12,9 10,2 12,3 11,3 9,2 10,0 14 8 22 12 S 1021,5 68 1 0,0
06.12.2018 15:00:00 12,7 10,8 12,0 11,7 8,9 10,0 8 4 17 9 WSW 1021,6 51 27 0,0
06.12.2018 14:00:00 12,1 11,5 12,1 11,0 8,7 10,0 5 3 17 9 SSW 1021,4 5 0 0,1
06.12.2018 13:00:00 12,5 10,5 12,7 10,9 8,5 10,0 9 5 20 11 SW 1021,8 10 0 0,0
06.12.2018 12:00:00 12,1 10,0 12,2 10,8 8,3 10,0 15 8 22 12 SSW 1021,9 10 19 0,0
06.12.2018 11:00:00 12,2 9,4 13,2 9,6 8,1 10,0 12 7 22 12 S 1021,4 45 43 0,0
06.12.2018 10:00:00 10,5 9,2 9,6 8,5 8,1 10,0 15 8 23 12 S 1021,1 22 0 0,0
06.12.2018 09:00:00 9,9 9,0 9,2 8,2 8,0 10,0 11 6 21 11 S 1020,9 10 0 0,0
06.12.2018 08:00:00 9,6 8,8 8,9 8,0 7,9 10,0 13 7 19 10 SSW 1019,9 18 0 0,0
06.12.2018 07:00:00 9,9 8,7 9,1 7,8 7,9 10,0 14 8 23 12 SSW 1019,2 23 0 0,3
06.12.2018 06:00:00 9,1 8,0 8,1 7,3 7,9 10,0 10 5 18 10 SSW 1018,9 6 0 0,1
06.12.2018 05:00:00 7,6 7,5 7,2 7,2 7,9 10,0 6 3 7 4 ESE 1018,9 4,0 0 1,4
06.12.2018 04:00:00 7,5 7,1 7,1 7,1 7,9 10,0 4 2 8 4 E 1019,2 4,2 0 0,4
06.12.2018 03:00:00 7,5 7,2 7,0 7,1 7,9 10,0 11 6 15 8 W 1019,2 3,7 0 0,0
06.12.2018 02:00:00 7,1 7,0 6,7 6,9 7,9 10,0 9 5 18 10 SSE 1018,5 4,1 0 0,0
06.12.2018 01:00:00 8,1 6,4 7,1 7,0 8,0 10,0 5 3 19 11 E 1018,1 16 0 0,1
06.12.2018 00:00:00 6,2 6,2 6,1 6,8 8,0 10,0 2 1 6 3 WSW 1020,3 2,0 0 0,0
05.12.2018 23:00:00 5,9 5,9 6,0 6,9 8,1 10,0 4 2 7 4 NNE 1020,2 0,4 0 0,1
05.12.2018 22:00:00 5,9 5,9 5,9 6,8 8,1 10,0 4 2 15 8 SE 1020,3 0,4 0 0,0
05.12.2018 21:00:00 5,7 5,7 5,5 6,9 8,2 10,0 4 2 7 4 SSW 1019,9 0,2 0 0,0
05.12.2018 20:00:00 5,9 5,9 5,9 7,2 8,2 10,0 4 2 7 4 E 1021,1 0,6 0 0,0
05.12.2018 19:00:00 5,9 5,9 5,9 7,3 8,3 10,0 8 4 8 5 E 1021,2 0,4 0 0,0
05.12.2018 18:00:00 5,9 5,9 6,0 7,6 8,3 10,0 5 3 7 4 ESE 1021,8 0,5 0 0,0
05.12.2018 17:00:00 5,8 5,8 6,0 7,9 8,3 10,0 2 1 6 4 - 1022,5 0,4 0 0,0
05.12.2018 16:00:00 5,9 5,9 6,4 8,3 8,2 10,0 4 2 8 4 NNE 1022,9 1,4 0 0,0
05.12.2018 15:00:00 6,1 6,1 6,8 8,6 8,1 10,0 4 2 9 5 N 1023,3 2,1 0 0,0
05.12.2018 14:00:00 6,0 6,0 6,8 8,7 8,0 10,0 8 4 9 5 N 1024,2 0,6 0 0,0
05.12.2018 13:00:00 6,1 5,9 6,8 8,6 7,8 9,9 5 3 9 5 - 1025,2 2,5 0 0,0
05.12.2018 12:00:00 5,7 5,7 6,6 7,7 7,7 9,9 5 3 9 5 NNE 1025,9 1,6 0 0,0
05.12.2018 11:00:00 5,3 5,3 5,9 7,0 7,7 9,9 3 2 8 4 N 1026,6 0,7 1 0,0
05.12.2018 10:00:00 5,3 5,2 5,4 6,1 7,8 9,9 4 2 5 3 N 1026,7 2,6 0 0,0
05.12.2018 09:00:00 4,7 4,7 4,3 5,5 7,9 9,9 1 1 6 3 ENE 1026,9 0,4 1 0,0
05.12.2018 08:00:00 4,8 4,8 3,8 5,8 8,0 9,9 4 2 6 3 NE 1026,7 10 0 0,0
05.12.2018 07:00:00 5,2 5,2 4,7 6,1 8,1 9,9 3 2 4 2 NNW 1026,3 5 0 0,0
05.12.2018 06:00:00 5,4 5,4 5,0 6,1 8,2 9,9 3 2 4 2 W 1026,5 7 0 0,0
05.12.2018 05:00:00 5,2 5,2 5,0 6,0 8,3 9,9 6 4 8 5 N 1026,7 6 0 0,0
05.12.2018 04:00:00 5,8 5,5 4,2 6,2 8,5 9,9 4 2 8 5 SE 1026,4 11 0 0,0
05.12.2018 03:00:00 5,3 5,3 3,8 6,4 8,6 9,9 2 1 9 5 NW 1026,6 9 0 0,0
05.12.2018 02:00:00 5,8 5,5 5,1 6,9 8,7 9,8 3 1 13 7 W 1026,8 10 0 0,0
05.12.2018 01:00:00 6,9 6,0 6,1 7,1 8,8 9,8 7 4 14 8 S 1026,5 22 0 0,0
05.12.2018 00:00:00 7,3 6,0 6,4 7,3 9,0 9,8 7 4 15 8 E 1026,7 23 0 0,0
04.12.2018 23:00:00 6,3 6,3 5,6 7,4 9,1 9,8 4 2 5 3 ENE 1027,0 6 0 0,0

tt = Température de l'air
td = dewpoint
tt 5cm = Température de l'air 5cm
tt -5cm = Température de l'air -5cm
tt -20cm = Température de l'air -20cm
tt -100cm = Température de l'air -100cm
ff = Vitesse du vent
fx = gusts
dd = Direction du vent
ppp = reduced air pressure
vv = visibility
sd = Ensoleillement
rr = Quantités de précipitations

stations d'obs. à proximité